Garden City, KS

10:10 PM CDT on March 22, 2017 (GMT -0500)
Garden City Regional

Weather History for KGCK - May, 2014

Change the Weather History Date:

Friday, May 16, 2014

  Actual Average Record
Temperature  
Mean Temperature 61 °F 63 °F  
Max Temperature 79 °F 77 °F 104 °F (1996)
Min Temperature 42 °F 50 °F 34 °F (1983)
Degree Days  
Heating Degree Days 4 4  
Month to date heating degree days 105 90  
Since 1 July heating degree days 5376 5152  
Cooling Degree Days 0 2  
Month to date cooling degree days 27 24  
Year to date cooling degree days 48 36  
Growing Degree Days 10 (Base 50)    
Moisture  
Dew Point 35 °F    
Average Humidity 44    
Maximum Humidity 71    
Minimum Humidity 17    
Precipitation  
Precipitation T in 0.10 in 0.79 in (2003)
Month to date precipitation 0.01 1.33  
Year to date precipitation 0.68 5.39  
Sea Level Pressure  
Sea Level Pressure 29.99 in    
Wind  
Wind Speed 13 mph (East)    
Max Wind Speed 33 mph    
Max Gust Speed 41 mph    
Visibility 10 miles    
Events      
T = Trace of Precipitation, MM = Missing Value Source: NWS Daily Summary

Daily Weather History Graph

Daily Weather History Graph

Search for Another Location

Airport or City:

Trip Planner

Search our weather history database for the weather conditions in past years. The results will help you decide how hot, cold, wet, or windy it might be!

Date:

Astronomy

May. 16, 2014 Rise Set
Actual Time 6:31 AM CDT 8:47 PM CDT
Civil Twilight 6:02 AM CDT 9:16 PM CDT
Nautical Twilight 5:25 AM CDT 9:53 PM CDT
Astronomical Twilight 4:46 AM CDT 10:33 PM CDT
Moon 10:55 PM CDT (5/16) 8:15 AM CDT (5/16)
Length of Visible Light 15h 14m
Length of Day
14h 15m
Waning Gibbous, 95% of the Moon is Illuminated
May 16
Waning Gibbous
May 21
Last Quarter
May 28
New
Jun 5
First Quarter
Jun 12
Full

Hourly Weather History & Observations

Time (CDT) Temp. Windchill Dew Point Humidity Pressure Visibility Wind Dir Wind Speed Gust Speed Precip Events Conditions
12:54 AM 48.9 °F - 28.0 °F 44% 30.13 in 10.0 mi ESE 4.6 mph - N/A   Clear
1:54 AM 45.0 °F 42.6 °F 28.9 °F 53% 30.13 in 10.0 mi SSW 4.6 mph - N/A   Partly Cloudy
2:54 AM 44.1 °F 40.1 °F 30.9 °F 60% 30.09 in 10.0 mi South 6.9 mph - N/A   Mostly Cloudy
3:54 AM 43.0 °F 38.2 °F 30.9 °F 62% 30.07 in 10.0 mi South 8.1 mph - N/A   Clear
4:54 AM 44.1 °F 42.5 °F 33.1 °F 65% 30.06 in 10.0 mi South 3.5 mph - N/A   Partly Cloudy
5:54 AM 43.0 °F 39.5 °F 33.1 °F 68% 30.04 in 10.0 mi South 5.8 mph - N/A   Partly Cloudy
6:54 AM 45.0 °F 41.8 °F 34.0 °F 65% 30.04 in 10.0 mi SSW 5.8 mph - N/A   Overcast
7:14 AM 45.0 °F - 34.0 °F 65% 30.07 in 10.0 mi Calm Calm - N/A   Overcast
7:54 AM 48.0 °F - 35.1 °F 61% 30.04 in 10.0 mi East 3.5 mph - N/A   Scattered Clouds
8:54 AM 53.1 °F - 35.1 °F 50% 30.01 in 10.0 mi SE 8.1 mph - N/A   Clear
9:54 AM 59.0 °F - 35.1 °F 41% 29.97 in 10.0 mi South 11.5 mph - N/A   Clear
10:54 AM 69.1 °F - 32.0 °F 25% 29.92 in 10.0 mi SSW 23.0 mph 27.6 mph N/A   Clear
11:54 AM 73.9 °F - 32.0 °F 21% 29.91 in 10.0 mi WSW 17.3 mph - N/A   Partly Cloudy
12:54 PM 75.0 °F - 32.0 °F 21% 29.90 in 10.0 mi NW 9.2 mph - N/A   Clear
1:54 PM 73.9 °F - 32.0 °F 21% 29.90 in 10.0 mi NW 5.8 mph - N/A   Scattered Clouds
2:54 PM 75.9 °F - 30.9 °F 19% 29.89 in 10.0 mi North 19.6 mph - N/A   Mostly Cloudy
3:54 PM 78.1 °F - 30.9 °F 18% 29.89 in 10.0 mi North 19.6 mph 25.3 mph N/A   Clear
4:54 PM 77.0 °F - 35.1 °F 22% 29.89 in 10.0 mi NNE 26.5 mph 39.1 mph N/A   Partly Cloudy
5:54 PM 72.0 °F - 39.0 °F 30% 29.94 in 10.0 mi North 25.3 mph 39.1 mph N/A   Clear
6:54 PM 66.9 °F - 39.9 °F 37% 29.97 in 10.0 mi North 24.2 mph 32.2 mph N/A   Partly Cloudy
7:54 PM 66.0 °F - 37.0 °F 34% 29.96 in 10.0 mi North 17.3 mph - N/A   Overcast
8:54 PM 62.1 °F - 44.1 °F 52% 29.99 in 10.0 mi NNE 16.1 mph - 0.00 in   Overcast
9:54 PM 60.1 °F - 41.0 °F 49% 30.01 in 10.0 mi NE 11.5 mph - N/A   Clear
10:54 PM 54.0 °F - 43.0 °F 66% 30.02 in 10.0 mi ENE 12.7 mph - N/A   Partly Cloudy
11:54 PM 52.0 °F - 42.1 °F 69% 30.03 in 10.0 mi East 10.4 mph - N/A   Clear